Flag for United Kingdom Weather past 2 weeks in Milton Keynes, England, United Kingdom

Now
59 °F

Passing clouds.


Feels Like: 57 °F
Forecast: 44 / 63 °F
Wind: 10 mph from Northwest

Location: Cranfield

Current Time: Aug 23, 2014 at 10:51:35 AM

Latest Report: Aug 23, 2014 at 10:20 AM


Visibility: N/A

Pressure: 29.95 "Hg

Humidity: 68%

Dew point: 48 °F

Location of Milton KeynesLocation

Historic Weather in Milton Keynes — Graph

°F

Milton Keynes temperature yesterday

Maximum temperature yesterday: 64 °F (at 2:50 PM)
Minimum temperature yesterday: 54 °F (at 7:20 AM)
Average temperature yesterday: 60 °F

Past Weeks' High & Low Weather Summary

 TemperatureHumidityPressure
High73 °F (Aug 8, 11:50 AM)100% (Aug 8, 2:20 PM)30.15 "Hg (Aug 8, 2:20 PM)
Low46 °F (Aug 21, 7:20 AM)43% (Aug 19, 3:50 PM)29.24 "Hg (Aug 10, 12:50 PM)
Average63 °F71%29.80 "Hg
* Reported Aug 8 9:20 AM — Aug 23 9:50 AM, Milton Keynes, Weather by CustomWeather, © 2014

Note: Actual official high and low records may vary slightly from our data, if they occured in-between our weather recording intervals... More about our weather records

Advertising

Milton Keynes weather history for previous 24 hours

 ConditionsComfort  
Time TempWeatherWind HumidityBarometerVisibility
9:50 AM
Aug 23
57 °FPassing clouds.10 mph72%29.95 "HgN/A
9:20 AM57 °FPassing clouds.9 mph77%29.95 "HgN/A
5:20 PM
Aug 22
61 °FPassing clouds.8 mph59%29.86 "HgN/A
4:50 PM61 °FScattered showers. Scattered clouds.12 mph68%29.86 "HgN/A
4:20 PM63 °FScattered showers. Scattered clouds.7 mph56%29.83 "HgN/A
3:50 PM64 °FScattered showers. Scattered clouds.8 mph52%29.86 "HgN/A
3:20 PM64 °FPassing clouds.9 mph52%29.86 "HgN/A
2:50 PM64 °FScattered clouds.10 mph56%29.86 "HgN/A
2:20 PM63 °FScattered clouds.12 mph59%29.83 "HgN/A
1:50 PM63 °FScattered clouds.10 mph64%29.83 "HgN/A
1:20 PM63 °FScattered clouds.10 mph64%29.83 "HgN/A
12:50 PM63 °FScattered clouds.9 mph64%29.83 "HgN/A
12:20 PM59 °FScattered clouds.9 mph72%29.83 "HgN/A
11:50 AM61 °FScattered clouds.13 mph68%29.83 "HgN/A
11:20 AM63 °FScattered clouds.10 mph64%29.83 "HgN/A
10:50 AM59 °FScattered clouds.12 mph72%29.83 "HgN/A
10:20 AM59 °FScattered clouds.10 mph77%29.80 "HgN/A
Weather by CustomWeather, © 2014

See weather overviewHow to use our weather pages